SCP
0 0 0 0 0 0 0 0 0 0 0 0 0 0 0 0 0 0 0 0 0 0 0 0 0 0 0 0 0 0 -0 0 0 0 0 0 0 0 0 0 0 0 0 0 0 0 0 0 0 0 0 0 0 0
0 0 0 0 0 0 0 0 0 0 0 0 0 0 0 0 0 0 0 0 0 0 0 0 0 0 0 -0 0 0 -0 -0 -0 0 -0 0 0 0 0 0 -0 0 0 0 0 0 0 0 0 0 0 0 0 -0
0 0 0 0 0 0 0 0 0 0 0 0 0 0 0 0 0 0 0 0 0 0 0 0 0 0 0 0 0 0 0 0 -0 0 0 0 0 0 0 0 0 0 0 0 0 0 0 0 0 0 0 0 0 0
0 0 0 0 0 0 0 0 0 0 0 0 0 0 0 0 0 0 0 0 0 0 0 0 0 0 0 0 0 0 0 0 0 0 0 0 -0 0 0 0 0 0 0 0 0 0 0 -0 0 0 0 -0 -0 0
0 0 0 0 0 0 0 0 0 0 0 0 0 0 0 0 0 0 0 0 0 0 0 0 0 0 0 0 0 0 0 0 0 -0 0 0 0 0 0 0 0 0 0 0 0 0 0 0 -0 0 -0 -0 -0 0
0 0 0 0 0 0 0 0 0 0 0 0 0 0 0 0 0 0 0 0 0 0 0 0 0 0 0 0 0 0 0 0 0 -0 0 0 0 0 0 0 0 0 0 0 0 0 0 0 -0 0 0 -0 -0 0
0 0 0 0 0 0 0 0 0 0 0 0 0 0 0 0 0 0 0 0 0 0 0 0 0 0 0 0 0 0 0 0 0 -0 0 0 0 0 0 0 0 0 0 0 0 0 0 0 0 0 0 -0 0 0
0 0 0 0 0 0 0 0 0 0 0 0 0 0 0 0 0 0 0 -0 0 0 0 0 0 0 0 0 -0 0 0 0 -0 -0 0 0 0 0 0 0 0 0 0 0 0 0 0 0 0 0 0 0 0 0
0 0 0 0 0 0 0 0 0 0 0 0 0 0 0 0 0 0 0 0 0 0 0 0 0 0 0 0 0 0 0 0 0 -0 -0 -0 0 0 0 0 0 0 0 0 0 0 0 0 0 0 0 0 0 0
0 0 0 0 0 0 0 0 0 0 0 0 0 0 0 0 0 0 0 0 0 0 0 0 0 0 0 0 -0 0 -0 -0 -0 -0 -0 -0 0 0 0 0 0 0 0 0 0 0 0 0 0 0 0 0 0 0
0 0 0 0 0 0 0 0 0 0 0 0 0 0 0 0 0 0 0 0 0 0 0 0 0 0 0 0 -0 -0 0 -0 -0 -0 -0 -0 -0 -0 0 0 0 0 0 0 0 0 0 0 0 0 0 0 0 0
0 0 0 0 0 0 0 0 0 0 0 0 0 0 0 0 0 0 0 0 0 0 0 0 0 0 0 0 0 -0 -0 -0 -0 0 -0 -0 -0 0 0 0 0 0 0 0 0 0 0 0 0 0 0 0 0 0
0 0 0 0 0 0 0 0 0 0 0 0 0 0 0 0 0 0 0 0 0 0 0 0 0 0 0 0 -0 -0 -0 0 0 -0 -0 -0 0 0 0 0 0 0 -0 -0 -0 -0 -0 -0 0 0 0 0 0 0
0 0 0 0 0 0 0 0 0 0 0 0 0 0 0 0 0 0 0 0 0 0 0 0 0 0 0 0 0 -0 -0 0 0 0 -0 0 -0 0 0 0 0 -0 -0 0 0 0 0 0 0 0 0 0 0 0
0 0 0 0 0 0 0 0 0 0 0 0 0 0 0 0 0 0 0 0 0 0 0 0 0 0 0 0 0 0 0 0 0 -0 -0 -0 -0 0 -0 0 0 0 0 0 0 0 0 0 0 0 0 0 0 0
0 0 0 0 0 0 0 0 0 0 0 0 0 0 0 0 0 0 0 0 0 0 0 0 0 0 0 0 0 0 0 0 -0 -0 0 -0 -0 0 0 -0 -0 0 0 0 0 0 0 -0 -0 -0 0 0 0 0
0 0 0 0 0 0 0 0 0 0 0 0 0 0 0 0 0 0 0 0 0 0 0 0 0 0 0 0 0 0 0 -0 0 0 0 -0 -0 0 -0 -0 0 0 0 0 0 -0 -0 -0 -0 -0 0 0 0 0
0 0 0 0 0 0 0 0 0 0 0 0 0 0 0 0 0 0 0 0 0 0 0 0 0 0 0 0 0 0 0 0 0 0 0 0 0 0 0 0 -0 0 0 0 -0 0 0 0 0 0 -0 -0 -0 -0
0 0 0 0 0 0 0 0 0 0 0 0 0 0 0 0 0 0 0 0 0 0 0 0 0 0 0 0 0 0 0 0 0 0 0 0 0 0 0 0 0 0 0 0 0 0 0 0 0 0 -0 0 -0 -0
0 0 0 0 0 0 0 0 0 0 0 0 0 0 0 0 0 0 0 0 0 0 0 0 0 0 0 0 0 0 0 0 0 0 0 0 0 0 0 0 0 0 0 0 0 0 0 0 0 0 -0 -0 0 0
0 0 0 0 0 0 0 0 0 0 0 0 0 0 0 0 0 0 0 0 0 0 0 0 0 0 0 -0 0 -0 0 0 0 0 0 0 0 0 0 0 0 0 0 0 0 -0 0 0 -0 -0 -0 -0 -0 0
0 0 0 0 0 0 0 0 0 0 0 0 0 0 0 0 0 0 0 0 0 0 0 0 0 0 0 0 0 0 -0 -0 0 0 0 0 0 0 0 0 0 0 0 0 0 0 0 0 0 0 0 0 0 0
0 0 0 0 0 0 0 0 0 0 0 0 0 0 0 0 0 0 0 0 0 0 0 0 0 0 0 0 0 0 0 -0 0 0 0 0 0 0 0 0 0 0 0 -0 0 0 0 0 0 0 0 0 0 0
0 0 0 0 0 0 0 0 0 0 0 0 0 0 0 0 0 0 -0 0 0 0 0 0 0 0 0 0 0 0 0 0 0 0 0 0 0 0 0 0 0 0 0 -0 0 -0 0 0 0 0 0 0 0 0
0 0 0 0 0 0 0 0 0 0 0 0 0 0 0 0 0 0 -0 0 0 0 0 0 0 0 0 0 0 0 0 0 0 0 0 0 0 0 0 0 0 -0 0 0 0 0 0 0 0 0 0 0 0 0
0 0 0 0 0 0 0 0 0 0 0 0 0 0 0 0 0 -0 0 0 0 0 0 0 0 0 0 0 0 0 0 0 0 0 0 0 0 0 0 0 0 -0 0 0 0 0 0 0 0 0 0 0 0 0
0 0 0 0 0 0 0 0 0 0 0 0 0 0 0 0 0 0 0 0 0 0 0 0 0 0 0 0 0 0 0 0 0 0 0 0 0 0 0 0 0 0 0 0 0 0 0 0 0 0 0 0 0 0
0 0 0 0 0 0 0 0 0 0 0 0 0 0 0 0 0 0 0 0 0 0 0 0 0 0 -0 -0 -0 0 0 0 0 0 0 0 0 0 -0 -0 0 0 0 0 0 0 0 0 0 0 0 0 0 0
0 0 0 0 0 0 0 0 0 0 0 0 0 0 0 0 0 0 -0 0 0 0 0 0 0 0 -0 -0 0 -0 -0 -0 -0 -0 0 0 0 0 0 0 0 0 0 0 0 0 0 0 0 0 0 0 0 0
0 0 0 0 0 0 0 0 0 0 0 -0 0 0 0 0 0 -0 0 0 0 -0 -0 0 0 0 -0 -0 0 0 0 0 -0 -0 0 -0 -0 -0 0 0 0 0 0 0 0 0 0 0 0 0 0 0 0 0
0 0 0 0 0 0 0 0 0 0 0 0 0 0 -0 0 0 0 0 0 0 -0 0 0 0 0 -0 -0 -0 0 -0 -0 -0 -0 -0 0 0 0 0 0 0 0 0 0 0 0 0 0 0 0 0 0 0 0
0 0 0 0 0 0 0 0 0 0 0 0 0 -0 -0 0 0 0 0 0 0 0 0 0 0 -0 0 0 -0 -0 -0 -0 -0 -0 -0 -0 0 0 0 -0 -0 0 0 0 0 0 0 0 0 0 0 0 0 0
0 0 0 0 0 0 -0 0 0 0 0 0 0 0 0 0 0 0 0 0 0 0 0 0 0 0 0 0 0 0 0 0 -0 -0 -0 -0 -0 -0 0 0 0 0 0 0 0 0 0 0 0 0 0 0 0 0
Wind_Speed_500mb
58 58 53 56 57 53 55 53 48 45 42 37 39 39 38 38 33 31 20 7 17 18 57 36 22 36 49 23 6 32 21 10 8 15 11 7 6 9 8 6 13 10 10 8 9 6 7 36 33 5 1 38 51 57
61 60 59 55 55 59 52 50 45 46 44 34 37 37 37 37 30 29 30 20 15 29 56 73 46 17 28 51 34 12 10 12 8 5 5 6 5 7 14 8 14 8 7 6 7 3 21 46 49 33 45 58 61 82
62 64 55 54 55 54 47 47 41 43 44 32 35 35 35 34 31 28 35 26 21 22 50 18 14 34 12 9 10 7 7 13 6 8 5 4 5 7 9 8 10 15 15 5 3 16 30 53 54 59 76 67 66 67
62 57 54 57 55 51 43 42 41 40 45 33 31 33 35 31 31 32 31 14 10 15 11 24 33 20 20 26 11 11 16 17 11 5 2 3 5 16 5 4 7 7 20 14 5 14 26 64 47 70 80 80 77 72
63 61 56 53 50 49 45 47 37 38 43 32 28 32 32 30 30 31 24 4 8 7 8 34 40 12 23 11 11 4 11 22 2 4 7 5 5 5 6 6 6 16 8 7 5 22 8 26 37 54 69 68 70 74
66 61 53 48 49 49 45 39 35 36 38 25 27 31 28 27 28 24 1 5 1 13 10 8 28 20 18 11 12 14 16 18 17 8 5 7 14 5 6 5 15 15 21 3 4 28 31 53 56 61 75 63 57 56
67 59 53 48 49 48 39 30 28 34 28 24 28 29 26 27 26 17 7 6 4 8 8 13 16 17 24 20 15 17 20 18 6 6 8 7 11 11 6 6 19 19 13 14 11 18 44 37 38 59 66 62 60 61
62 59 55 48 41 33 31 31 33 29 22 23 27 24 24 25 24 17 2 19 15 9 11 5 8 15 8 3 10 10 5 5 14 7 5 7 9 7 6 2 6 21 24 21 23 37 40 44 48 55 59 63 67 62
62 56 52 46 41 37 30 36 31 23 18 22 22 20 18 9 6 6 10 10 19 10 8 7 5 7 10 21 3 10 5 5 5 5 5 7 6 7 3 14 12 12 14 27 33 33 37 39 40 43 46 52 64 62
50 50 45 44 37 35 30 30 23 16 13 13 12 4 3 2 7 13 7 11 19 13 14 11 10 8 13 22 5 9 8 1 4 6 9 6 4 11 13 9 16 27 24 24 26 26 32 33 35 37 45 51 55 56
42 42 42 38 37 32 25 22 20 12 12 7 6 7 6 12 7 8 7 11 12 8 15 17 20 10 23 4 7 6 6 2 4 7 6 2 1 5 17 18 11 23 25 32 28 38 36 33 41 43 42 46 47 47
47 43 44 41 38 32 25 25 21 20 15 10 8 15 9 9 10 7 6 6 9 9 11 9 7 9 10 9 1 5 6 5 3 23 6 3 5 25 21 21 23 32 32 28 27 31 28 30 34 37 38 40 42 44
49 45 45 42 38 33 31 29 26 17 22 12 7 5 8 8 4 10 8 7 3 5 2 6 6 10 8 5 7 2 3 2 27 3 5 5 30 39 34 26 31 36 38 30 27 26 22 29 26 26 34 35 40 45
53 47 44 44 39 38 36 29 23 22 14 9 9 8 10 8 10 10 9 8 8 7 5 4 4 2 5 6 4 5 2 8 3 3 8 10 45 48 39 32 30 32 36 34 33 32 30 27 24 21 20 24 35 47
50 43 45 42 43 42 34 29 27 28 13 9 10 9 12 26 20 13 14 17 10 6 1 4 5 3 5 3 4 5 9 2 1 7 8 45 60 52 41 36 38 38 39 41 40 36 32 30 28 27 28 33 37 43
47 43 42 43 46 45 35 30 30 21 7 9 14 9 16 3 7 13 31 22 18 10 5 4 4 5 4 3 4 3 2 5 6 4 36 70 66 50 42 41 39 37 37 37 34 33 33 28 24 24 23 15 20 35
52 34 48 48 41 34 37 32 17 12 10 10 16 22 41 34 22 13 21 20 16 10 3 5 1 6 2 2 3 4 7 6 12 30 61 75 63 52 47 43 41 40 37 35 36 34 32 30 27 24 26 28 32 35
42 44 54 48 42 45 38 15 13 13 17 25 14 27 23 23 9 14 15 17 10 11 12 7 3 2 5 4 7 5 7 15 29 43 67 62 57 51 48 48 46 41 38 34 34 34 31 28 25 24 25 29 33 35
50 55 54 52 50 23 15 16 12 9 27 25 29 40 38 32 26 26 23 22 17 16 12 5 2 5 6 7 8 19 23 28 46 50 59 57 56 52 48 49 46 41 38 38 33 30 30 25 23 24 25 29 28 27
53 54 56 53 43 15 11 12 18 11 9 9 18 23 20 22 21 23 28 24 23 13 6 5 7 9 9 5 12 20 22 30 51 52 58 60 60 54 53 51 44 38 34 28 33 32 34 30 24 21 26 27 26 22
48 51 45 45 38 8 6 3 12 10 14 11 18 21 12 13 30 30 29 23 14 11 9 16 11 9 12 16 12 10 21 34 56 59 69 67 64 61 55 48 40 34 36 41 38 38 38 29 25 27 28 26 24 16
36 30 28 29 13 10 9 12 9 9 8 14 20 15 10 5 9 37 29 13 11 16 20 23 21 19 19 18 14 14 17 22 42 54 56 62 62 62 58 53 46 38 40 37 37 45 31 24 26 25 27 25 26 24
38 34 18 11 8 12 11 14 9 10 4 7 5 4 5 4 8 20 11 12 18 27 25 24 22 27 25 18 13 14 18 27 41 54 64 61 56 58 57 53 45 40 40 34 36 34 36 35 33 30 34 31 33 30
26 9 7 9 13 8 9 10 12 10 13 7 4 6 3 8 16 7 5 10 22 22 32 29 32 34 25 18 16 15 18 26 34 50 60 59 59 62 62 58 50 41 35 30 30 21 24 38 45 40 39 41 34 32
9 11 8 9 12 9 7 7 10 6 8 6 4 5 6 6 5 5 5 11 30 36 45 42 37 32 27 24 18 9 14 26 35 53 56 64 62 60 56 51 48 40 35 31 38 31 23 42 46 39 41 41 30 27
5 11 11 14 7 7 7 4 10 13 7 5 8 10 10 7 6 7 6 9 33 47 50 50 45 37 30 28 26 21 15 21 28 47 50 47 55 62 58 51 47 44 34 37 41 35 40 42 41 40 44 35 26 25
4 8 14 14 9 12 4 9 13 5 7 8 6 5 3 4 7 6 7 10 21 26 31 34 38 38 35 34 24 18 16 17 23 42 47 46 46 49 52 48 47 43 37 35 43 39 38 38 33 38 42 37 39 33
9 8 5 16 13 11 4 4 4 4 3 9 4 8 9 6 4 6 5 19 33 38 39 35 24 33 28 31 26 26 21 21 17 14 52 44 32 41 38 39 36 35 43 42 32 42 34 22 18 33 35 29 33 29
8 10 10 8 7 5 7 6 4 4 10 15 8 8 11 7 11 12 11 16 28 34 30 29 30 27 33 31 30 24 26 34 36 34 39 38 30 33 34 34 39 38 36 34 33 34 31 25 31 27 36 36 32 26
10 13 5 5 3 4 4 8 4 7 12 14 9 7 11 5 6 7 22 4 28 38 36 32 31 34 40 32 34 32 22 26 36 26 38 38 36 36 37 34 35 29 30 33 33 28 30 31 38 36 37 38 34 28
6 6 10 9 4 12 18 11 8 10 15 6 9 5 6 3 2 27 14 3 33 39 36 31 30 23 29 35 36 30 30 29 22 31 32 30 30 23 24 30 22 24 28 26 24 22 23 25 29 33 46 45 38 31
5 9 3 3 9 16 15 10 17 12 7 9 11 9 5 11 6 10 17 17 28 33 29 28 26 29 30 24 21 16 13 19 27 34 31 36 27 21 23 28 27 18 24 29 26 19 13 21 28 35 40 38 34 31
12 17 14 10 6 6 11 6 6 6 7 10 19 15 1 3 11 10 27 23 17 21 17 16 21 22 26 25 27 16 26 19 24 26 32 35 34 24 19 32 34 32 27 33 25 15 12 14 29 30 32 31 29 25
Wind_Direction_500mb
290 293 299 302 300 303 307 312 318 327 320 326 324 329 333 334 336 339 3 227 320 282 291 282 291 286 293 276 275 310 324 349 342 12 8 348 334 354 348 53 345 12 333 11 341 62 95 347 330 140 239 122 125 109
287 291 295 297 296 294 299 306 311 324 315 318 318 324 330 326 329 330 329 337 279 263 274 302 293 305 293 304 273 292 294 308 340 340 357 312 346 326 357 10 345 30 16 351 18 355 290 292 253 279 119 113 119 118
284 289 289 289 293 298 301 308 312 316 311 309 314 318 323 320 322 322 319 338 329 300 314 308 325 337 335 323 298 291 308 306 316 328 303 307 10 331 3 32 312 339 6 28 262 332 340 9 70 95 100 104 110 117
282 286 286 287 287 290 296 299 305 309 308 307 309 315 318 315 317 318 316 332 307 307 294 291 333 358 1 336 246 355 316 316 297 293 340 356 344 23 43 105 18 325 322 326 35 340 357 27 55 89 95 109 110 106
276 279 284 289 287 287 289 296 300 301 303 303 306 312 312 310 315 315 311 263 267 304 284 293 324 349 356 344 151 80 12 319 275 23 27 17 352 0 72 70 26 0 339 4 23 340 43 24 71 106 112 107 109 112
272 275 282 286 287 283 285 297 294 302 294 291 302 306 304 305 313 321 346 106 349 279 304 299 315 323 349 161 136 77 71 53 68 52 27 13 19 65 63 51 0 12 17 333 52 49 64 73 87 106 115 120 124 121
268 269 277 281 281 283 282 290 287 282 286 293 301 301 299 298 297 277 233 201 239 238 282 294 295 311 325 176 146 98 36 46 90 92 36 28 17 64 52 26 346 29 60 93 65 84 64 82 85 101 109 122 127 124
268 269 271 272 273 280 294 285 270 276 279 291 297 294 293 289 290 287 318 229 230 229 257 278 275 306 303 325 178 172 109 56 38 93 36 28 26 58 53 300 39 60 81 88 102 100 100 105 106 110 115 124 119 115
260 263 264 263 264 272 282 281 270 264 276 291 291 292 295 263 244 308 288 234 229 230 276 232 237 263 304 310 189 146 131 57 88 57 6 66 17 44 165 72 86 81 90 108 104 95 98 97 103 121 124 125 119 116
255 254 257 260 263 268 276 273 251 247 268 267 290 271 245 230 279 279 253 190 198 209 223 250 240 261 279 298 308 124 106 131 135 218 122 81 59 46 73 107 121 103 114 121 119 126 106 102 104 106 115 121 126 128
264 265 266 259 260 264 269 244 223 210 203 215 206 231 204 228 265 235 232 203 197 227 218 237 232 238 282 228 236 214 119 162 157 224 112 113 129 126 88 66 141 154 124 92 112 115 117 129 132 130 130 132 134 134
271 263 252 253 252 251 230 208 204 198 193 187 243 284 248 202 224 246 221 234 188 232 205 209 240 259 300 282 28 231 116 164 212 156 103 109 175 152 125 84 97 180 169 131 111 124 131 136 129 125 139 144 143 143
264 254 247 240 237 215 195 192 195 197 225 231 225 245 208 204 232 199 226 254 231 247 319 43 332 331 303 275 272 285 170 172 128 121 128 171 157 157 143 134 124 131 139 165 153 132 133 125 124 130 138 138 142 144
251 244 237 224 209 189 184 186 204 198 177 169 185 244 195 222 226 196 198 188 253 144 105 42 307 272 303 334 258 320 190 127 91 100 197 164 164 164 153 152 149 145 138 143 141 150 154 152 142 131 141 160 164 155
239 227 211 206 187 179 177 189 196 186 170 203 216 232 220 232 250 206 172 160 171 130 35 310 328 231 284 315 284 21 344 55 157 213 172 166 167 163 160 163 154 149 151 152 151 151 151 149 148 140 135 143 154 158
200 195 201 189 180 168 176 185 176 174 191 227 234 270 272 243 344 73 135 171 168 163 115 61 351 1 294 201 303 319 29 231 246 203 162 166 167 167 172 163 161 159 160 158 159 159 162 163 159 151 149 168 172 166
187 186 179 166 170 174 164 156 164 186 216 230 238 249 267 279 270 191 197 226 168 152 126 104 329 232 312 293 262 166 185 218 173 157 166 168 168 167 173 168 164 166 165 164 161 167 168 166 163 159 146 142 151 160
174 171 166 170 167 161 163 165 178 210 233 241 249 253 256 257 246 189 198 177 172 145 159 197 231 296 221 224 279 245 148 147 169 166 167 169 167 169 173 172 174 171 168 169 171 170 167 167 162 149 136 134 137 142
163 157 155 157 153 139 159 191 203 248 233 248 254 264 265 273 269 218 195 188 195 167 160 153 175 217 234 231 199 164 163 166 161 168 171 171 170 175 179 175 170 169 170 171 172 170 165 164 166 161 153 155 155 148
154 158 158 157 161 149 190 205 197 243 261 244 260 273 278 238 195 191 204 189 165 154 154 192 210 211 219 204 191 190 188 179 169 163 172 176 177 175 174 173 172 172 172 167 157 162 169 177 178 164 158 159 161 160
150 150 154 169 176 206 252 237 204 234 267 261 279 292 275 247 192 210 204 196 173 186 224 223 206 207 184 175 191 178 189 188 187 184 180 178 182 181 179 181 178 176 174 170 180 187 190 186 177 174 173 178 177 169
139 157 163 158 177 206 254 227 231 312 265 260 284 274 254 234 202 204 205 172 202 214 217 236 223 207 206 194 197 210 203 203 204 197 187 182 179 185 184 184 183 181 181 182 191 192 195 189 191 191 196 192 187 184
139 138 144 171 183 206 257 233 232 207 231 260 273 226 229 221 229 186 184 213 223 230 225 231 218 205 196 196 211 207 191 191 194 194 182 184 189 193 192 193 194 193 194 194 199 206 219 208 199 189 187 193 188 199
139 143 165 192 201 227 241 213 215 222 219 216 263 273 276 207 168 153 211 222 235 243 209 194 177 172 176 179 184 202 202 196 198 191 190 190 191 197 199 197 201 203 197 181 195 218 218 218 198 192 194 196 202 202
142 194 198 233 210 215 235 212 196 220 213 216 221 279 285 154 127 194 230 255 255 225 196 188 192 192 181 174 183 184 188 202 199 188 190 194 193 192 196 203 205 206 200 212 212 211 208 194 191 200 203 203 207 207
178 205 182 202 222 215 217 226 196 210 207 217 245 212 210 142 173 233 238 264 209 195 188 184 182 183 182 181 181 186 177 182 197 186 185 191 195 192 195 200 204 203 209 218 209 196 192 198 206 207 205 207 210 209
210 242 213 224 245 237 248 276 284 229 238 214 232 170 135 193 240 236 243 244 182 184 189 184 177 187 187 188 197 183 187 190 200 198 196 190 192 198 198 202 208 204 202 213 214 209 202 210 215 212 205 217 222 224
252 275 208 238 220 249 236 172 253 257 237 342 162 157 183 227 261 327 291 179 162 167 181 182 192 194 178 174 174 173 168 167 197 173 188 173 180 197 204 210 208 218 214 206 214 204 206 208 199 195 205 214 209 216
246 249 326 306 303 242 212 184 247 360 18 17 0 8 356 31 352 345 4 170 174 174 163 170 151 160 169 174 165 170 165 163 160 165 177 187 203 177 189 188 194 193 196 200 200 212 214 211 218 215 213 219 221 225
243 228 235 257 232 218 233 191 110 38 17 356 311 301 329 351 13 356 186 239 180 177 173 175 169 170 158 172 177 176 188 190 188 189 170 167 173 169 173 180 177 185 197 202 209 207 202 220 222 221 217 216 216 215
276 227 214 247 248 287 296 305 319 296 318 291 195 234 246 14 85 155 214 96 178 179 162 163 166 163 168 181 194 200 201 201 199 186 180 172 175 175 178 179 181 204 209 207 208 223 242 237 225 217 211 209 212 219
253 214 222 262 248 268 276 258 269 257 273 181 156 164 67 145 53 61 129 155 150 155 158 158 155 174 186 186 184 211 200 172 184 186 192 183 177 195 185 186 186 186 208 210 217 232 232 202 189 192 197 204 208 214
254 278 285 282 267 211 204 205 179 121 66 85 125 116 150 62 68 95 86 118 137 153 157 155 171 166 172 173 183 198 196 200 207 195 189 192 201 215 205 200 205 211 216 220 220 222 215 202 196 199 204 211 218 228
Wind_Speed_850mb
58 58 53 56 57 53 55 53 48 45 42 37 39 39 38 38 33 31 20 7 17 18 57 36 22 36 49 23 6 32 21 10 8 15 11 7 6 9 8 6 13 10 10 8 9 6 7 36 33 5 1 38 51 57
61 60 59 55 55 59 52 50 45 46 44 34 37 37 37 37 30 29 30 20 15 29 56 73 46 17 28 51 34 12 10 12 8 5 5 6 5 7 14 8 14 8 7 6 7 3 21 46 49 33 45 58 61 82
62 64 55 54 55 54 47 47 41 43 44 32 35 35 35 34 31 28 35 26 21 22 50 18 14 34 12 9 10 7 7 13 6 8 5 4 5 7 9 8 10 15 15 5 3 16 30 53 54 59 76 67 66 67
62 57 54 57 55 51 43 42 41 40 45 33 31 33 35 31 31 32 31 14 10 15 11 24 33 20 20 26 11 11 16 17 11 5 2 3 5 16 5 4 7 7 20 14 5 14 26 64 47 70 80 80 77 72
63 61 56 53 50 49 45 47 37 38 43 32 28 32 32 30 30 31 24 4 8 7 8 34 40 12 23 11 11 4 11 22 2 4 7 5 5 5 6 6 6 16 8 7 5 22 8 26 37 54 69 68 70 74
66 61 53 48 49 49 45 39 35 36 38 25 27 31 28 27 28 24 1 5 1 13 10 8 28 20 18 11 12 14 16 18 17 8 5 7 14 5 6 5 15 15 21 3 4 28 31 53 56 61 75 63 57 56
67 59 53 48 49 48 39 30 28 34 28 24 28 29 26 27 26 17 7 6 4 8 8 13 16 17 24 20 15 17 20 18 6 6 8 7 11 11 6 6 19 19 13 14 11 18 44 37 38 59 66 62 60 61
62 59 55 48 41 33 31 31 33 29 22 23 27 24 24 25 24 17 2 19 15 9 11 5 8 15 8 3 10 10 5 5 14 7 5 7 9 7 6 2 6 21 24 21 23 37 40 44 48 55 59 63 67 62
62 56 52 46 41 37 30 36 31 23 18 22 22 20 18 9 6 6 10 10 19 10 8 7 5 7 10 21 3 10 5 5 5 5 5 7 6 7 3 14 12 12 14 27 33 33 37 39 40 43 46 52 64 62
50 50 45 44 37 35 30 30 23 16 13 13 12 4 3 2 7 13 7 11 19 13 14 11 10 8 13 22 5 9 8 1 4 6 9 6 4 11 13 9 16 27 24 24 26 26 32 33 35 37 45 51 55 56
42 42 42 38 37 32 25 22 20 12 12 7 6 7 6 12 7 8 7 11 12 8 15 17 20 10 23 4 7 6 6 2 4 7 6 2 1 5 17 18 11 23 25 32 28 38 36 33 41 43 42 46 47 47
47 43 44 41 38 32 25 25 21 20 15 10 8 15 9 9 10 7 6 6 9 9 11 9 7 9 10 9 1 5 6 5 3 23 6 3 5 25 21 21 23 32 32 28 27 31 28 30 34 37 38 40 42 44
49 45 45 42 38 33 31 29 26 17 22 12 7 5 8 8 4 10 8 7 3 5 2 6 6 10 8 5 7 2 3 2 27 3 5 5 30 39 34 26 31 36 38 30 27 26 22 29 26 26 34 35 40 45
53 47 44 44 39 38 36 29 23 22 14 9 9 8 10 8 10 10 9 8 8 7 5 4 4 2 5 6 4 5 2 8 3 3 8 10 45 48 39 32 30 32 36 34 33 32 30 27 24 21 20 24 35 47
50 43 45 42 43 42 34 29 27 28 13 9 10 9 12 26 20 13 14 17 10 6 1 4 5 3 5 3 4 5 9 2 1 7 8 45 60 52 41 36 38 38 39 41 40 36 32 30 28 27 28 33 37 43
47 43 42 43 46 45 35 30 30 21 7 9 14 9 16 3 7 13 31 22 18 10 5 4 4 5 4 3 4 3 2 5 6 4 36 70 66 50 42 41 39 37 37 37 34 33 33 28 24 24 23 15 20 35
52 34 48 48 41 34 37 32 17 12 10 10 16 22 41 34 22 13 21 20 16 10 3 5 1 6 2 2 3 4 7 6 12 30 61 75 63 52 47 43 41 40 37 35 36 34 32 30 27 24 26 28 32 35
42 44 54 48 42 45 38 15 13 13 17 25 14 27 23 23 9 14 15 17 10 11 12 7 3 2 5 4 7 5 7 15 29 43 67 62 57 51 48 48 46 41 38 34 34 34 31 28 25 24 25 29 33 35
50 55 54 52 50 23 15 16 12 9 27 25 29 40 38 32 26 26 23 22 17 16 12 5 2 5 6 7 8 19 23 28 46 50 59 57 56 52 48 49 46 41 38 38 33 30 30 25 23 24 25 29 28 27
53 54 56 53 43 15 11 12 18 11 9 9 18 23 20 22 21 23 28 24 23 13 6 5 7 9 9 5 12 20 22 30 51 52 58 60 60 54 53 51 44 38 34 28 33 32 34 30 24 21 26 27 26 22
48 51 45 45 38 8 6 3 12 10 14 11 18 21 12 13 30 30 29 23 14 11 9 16 11 9 12 16 12 10 21 34 56 59 69 67 64 61 55 48 40 34 36 41 38 38 38 29 25 27 28 26 24 16
36 30 28 29 13 10 9 12 9 9 8 14 20 15 10 5 9 37 29 13 11 16 20 23 21 19 19 18 14 14 17 22 42 54 56 62 62 62 58 53 46 38 40 37 37 45 31 24 26 25 27 25 26 24
38 34 18 11 8 12 11 14 9 10 4 7 5 4 5 4 8 20 11 12 18 27 25 24 22 27 25 18 13 14 18 27 41 54 64 61 56 58 57 53 45 40 40 34 36 34 36 35 33 30 34 31 33 30
26 9 7 9 13 8 9 10 12 10 13 7 4 6 3 8 16 7 5 10 22 22 32 29 32 34 25 18 16 15 18 26 34 50 60 59 59 62 62 58 50 41 35 30 30 21 24 38 45 40 39 41 34 32
9 11 8 9 12 9 7 7 10 6 8 6 4 5 6 6 5 5 5 11 30 36 45 42 37 32 27 24 18 9 14 26 35 53 56 64 62 60 56 51 48 40 35 31 38 31 23 42 46 39 41 41 30 27
5 11 11 14 7 7 7 4 10 13 7 5 8 10 10 7 6 7 6 9 33 47 50 50 45 37 30 28 26 21 15 21 28 47 50 47 55 62 58 51 47 44 34 37 41 35 40 42 41 40 44 35 26 25
4 8 14 14 9 12 4 9 13 5 7 8 6 5 3 4 7 6 7 10 21 26 31 34 38 38 35 34 24 18 16 17 23 42 47 46 46 49 52 48 47 43 37 35 43 39 38 38 33 38 42 37 39 33
9 8 5 16 13 11 4 4 4 4 3 9 4 8 9 6 4 6 5 19 33 38 39 35 24 33 28 31 26 26 21 21 17 14 52 44 32 41 38 39 36 35 43 42 32 42 34 22 18 33 35 29 33 29
8 10 10 8 7 5 7 6 4 4 10 15 8 8 11 7 11 12 11 16 28 34 30 29 30 27 33 31 30 24 26 34 36 34 39 38 30 33 34 34 39 38 36 34 33 34 31 25 31 27 36 36 32 26
10 13 5 5 3 4 4 8 4 7 12 14 9 7 11 5 6 7 22 4 28 38 36 32 31 34 40 32 34 32 22 26 36 26 38 38 36 36 37 34 35 29 30 33 33 28 30 31 38 36 37 38 34 28
6 6 10 9 4 12 18 11 8 10 15 6 9 5 6 3 2 27 14 3 33 39 36 31 30 23 29 35 36 30 30 29 22 31 32 30 30 23 24 30 22 24 28 26 24 22 23 25 29 33 46 45 38 31
5 9 3 3 9 16 15 10 17 12 7 9 11 9 5 11 6 10 17 17 28 33 29 28 26 29 30 24 21 16 13 19 27 34 31 36 27 21 23 28 27 18 24 29 26 19 13 21 28 35 40 38 34 31
12 17 14 10 6 6 11 6 6 6 7 10 19 15 1 3 11 10 27 23 17 21 17 16 21 22 26 25 27 16 26 19 24 26 32 35 34 24 19 32 34 32 27 33 25 15 12 14 29 30 32 31 29 25
Wind_Direction_850mb
290 293 299 302 300 303 307 312 318 327 320 326 324 329 333 334 336 339 3 227 320 282 291 282 291 286 293 276 275 310 324 349 342 12 8 348 334 354 348 53 345 12 333 11 341 62 95 347 330 140 239 122 125 109
287 291 295 297 296 294 299 306 311 324 315 318 318 324 330 326 329 330 329 337 279 263 274 302 293 305 293 304 273 292 294 308 340 340 357 312 346 326 357 10 345 30 16 351 18 355 290 292 253 279 119 113 119 118
284 289 289 289 293 298 301 308 312 316 311 309 314 318 323 320 322 322 319 338 329 300 314 308 325 337 335 323 298 291 308 306 316 328 303 307 10 331 3 32 312 339 6 28 262 332 340 9 70 95 100 104 110 117
282 286 286 287 287 290 296 299 305 309 308 307 309 315 318 315 317 318 316 332 307 307 294 291 333 358 1 336 246 355 316 316 297 293 340 356 344 23 43 105 18 325 322 326 35 340 357 27 55 89 95 109 110 106
276 279 284 289 287 287 289 296 300 301 303 303 306 312 312 310 315 315 311 263 267 304 284 293 324 349 356 344 151 80 12 319 275 23 27 17 352 0 72 70 26 0 339 4 23 340 43 24 71 106 112 107 109 112
272 275 282 286 287 283 285 297 294 302 294 291 302 306 304 305 313 321 346 106 349 279 304 299 315 323 349 161 136 77 71 53 68 52 27 13 19 65 63 51 0 12 17 333 52 49 64 73 87 106 115 120 124 121
268 269 277 281 281 283 282 290 287 282 286 293 301 301 299 298 297 277 233 201 239 238 282 294 295 311 325 176 146 98 36 46 90 92 36 28 17 64 52 26 346 29 60 93 65 84 64 82 85 101 109 122 127 124
268 269 271 272 273 280 294 285 270 276 279 291 297 294 293 289 290 287 318 229 230 229 257 278 275 306 303 325 178 172 109 56 38 93 36 28 26 58 53 300 39 60 81 88 102 100 100 105 106 110 115 124 119 115
260 263 264 263 264 272 282 281 270 264 276 291 291 292 295 263 244 308 288 234 229 230 276 232 237 263 304 310 189 146 131 57 88 57 6 66 17 44 165 72 86 81 90 108 104 95 98 97 103 121 124 125 119 116
255 254 257 260 263 268 276 273 251 247 268 267 290 271 245 230 279 279 253 190 198 209 223 250 240 261 279 298 308 124 106 131 135 218 122 81 59 46 73 107 121 103 114 121 119 126 106 102 104 106 115 121 126 128
264 265 266 259 260 264 269 244 223 210 203 215 206 231 204 228 265 235 232 203 197 227 218 237 232 238 282 228 236 214 119 162 157 224 112 113 129 126 88 66 141 154 124 92 112 115 117 129 132 130 130 132 134 134
271 263 252 253 252 251 230 208 204 198 193 187 243 284 248 202 224 246 221 234 188 232 205 209 240 259 300 282 28 231 116 164 212 156 103 109 175 152 125 84 97 180 169 131 111 124 131 136 129 125 139 144 143 143
264 254 247 240 237 215 195 192 195 197 225 231 225 245 208 204 232 199 226 254 231 247 319 43 332 331 303 275 272 285 170 172 128 121 128 171 157 157 143 134 124 131 139 165 153 132 133 125 124 130 138 138 142 144
251 244 237 224 209 189 184 186 204 198 177 169 185 244 195 222 226 196 198 188 253 144 105 42 307 272 303 334 258 320 190 127 91 100 197 164 164 164 153 152 149 145 138 143 141 150 154 152 142 131 141 160 164 155
239 227 211 206 187 179 177 189 196 186 170 203 216 232 220 232 250 206 172 160 171 130 35 310 328 231 284 315 284 21 344 55 157 213 172 166 167 163 160 163 154 149 151 152 151 151 151 149 148 140 135 143 154 158
200 195 201 189 180 168 176 185 176 174 191 227 234 270 272 243 344 73 135 171 168 163 115 61 351 1 294 201 303 319 29 231 246 203 162 166 167 167 172 163 161 159 160 158 159 159 162 163 159 151 149 168 172 166
187 186 179 166 170 174 164 156 164 186 216 230 238 249 267 279 270 191 197 226 168 152 126 104 329 232 312 293 262 166 185 218 173 157 166 168 168 167 173 168 164 166 165 164 161 167 168 166 163 159 146 142 151 160
174 171 166 170 167 161 163 165 178 210 233 241 249 253 256 257 246 189 198 177 172 145 159 197 231 296 221 224 279 245 148 147 169 166 167 169 167 169 173 172 174 171 168 169 171 170 167 167 162 149 136 134 137 142
163 157 155 157 153 139 159 191 203 248 233 248 254 264 265 273 269 218 195 188 195 167 160 153 175 217 234 231 199 164 163 166 161 168 171 171 170 175 179 175 170 169 170 171 172 170 165 164 166 161 153 155 155 148
154 158 158 157 161 149 190 205 197 243 261 244 260 273 278 238 195 191 204 189 165 154 154 192 210 211 219 204 191 190 188 179 169 163 172 176 177 175 174 173 172 172 172 167 157 162 169 177 178 164 158 159 161 160
150 150 154 169 176 206 252 237 204 234 267 261 279 292 275 247 192 210 204 196 173 186 224 223 206 207 184 175 191 178 189 188 187 184 180 178 182 181 179 181 178 176 174 170 180 187 190 186 177 174 173 178 177 169
139 157 163 158 177 206 254 227 231 312 265 260 284 274 254 234 202 204 205 172 202 214 217 236 223 207 206 194 197 210 203 203 204 197 187 182 179 185 184 184 183 181 181 182 191 192 195 189 191 191 196 192 187 184
139 138 144 171 183 206 257 233 232 207 231 260 273 226 229 221 229 186 184 213 223 230 225 231 218 205 196 196 211 207 191 191 194 194 182 184 189 193 192 193 194 193 194 194 199 206 219 208 199 189 187 193 188 199
139 143 165 192 201 227 241 213 215 222 219 216 263 273 276 207 168 153 211 222 235 243 209 194 177 172 176 179 184 202 202 196 198 191 190 190 191 197 199 197 201 203 197 181 195 218 218 218 198 192 194 196 202 202
142 194 198 233 210 215 235 212 196 220 213 216 221 279 285 154 127 194 230 255 255 225 196 188 192 192 181 174 183 184 188 202 199 188 190 194 193 192 196 203 205 206 200 212 212 211 208 194 191 200 203 203 207 207
178 205 182 202 222 215 217 226 196 210 207 217 245 212 210 142 173 233 238 264 209 195 188 184 182 183 182 181 181 186 177 182 197 186 185 191 195 192 195 200 204 203 209 218 209 196 192 198 206 207 205 207 210 209
210 242 213 224 245 237 248 276 284 229 238 214 232 170 135 193 240 236 243 244 182 184 189 184 177 187 187 188 197 183 187 190 200 198 196 190 192 198 198 202 208 204 202 213 214 209 202 210 215 212 205 217 222 224
252 275 208 238 220 249 236 172 253 257 237 342 162 157 183 227 261 327 291 179 162 167 181 182 192 194 178 174 174 173 168 167 197 173 188 173 180 197 204 210 208 218 214 206 214 204 206 208 199 195 205 214 209 216
246 249 326 306 303 242 212 184 247 360 18 17 0 8 356 31 352 345 4 170 174 174 163 170 151 160 169 174 165 170 165 163 160 165 177 187 203 177 189 188 194 193 196 200 200 212 214 211 218 215 213 219 221 225
243 228 235 257 232 218 233 191 110 38 17 356 311 301 329 351 13 356 186 239 180 177 173 175 169 170 158 172 177 176 188 190 188 189 170 167 173 169 173 180 177 185 197 202 209 207 202 220 222 221 217 216 216 215
276 227 214 247 248 287 296 305 319 296 318 291 195 234 246 14 85 155 214 96 178 179 162 163 166 163 168 181 194 200 201 201 199 186 180 172 175 175 178 179 181 204 209 207 208 223 242 237 225 217 211 209 212 219
253 214 222 262 248 268 276 258 269 257 273 181 156 164 67 145 53 61 129 155 150 155 158 158 155 174 186 186 184 211 200 172 184 186 192 183 177 195 185 186 186 186 208 210 217 232 232 202 189 192 197 204 208 214
254 278 285 282 267 211 204 205 179 121 66 85 125 116 150 62 68 95 86 118 137 153 157 155 171 166 172 173 183 198 196 200 207 195 189 192 201 215 205 200 205 211 216 220 220 222 215 202 196 199 204 211 218 228